Location: Leuk
(46.3174°N, 7.6341°E)
Time: 13:10:22
(UTC+00:00)

MOS 1 Rocket - Pass Details

Date: 22 June 2021
Orbit: 615 x 829 km, 97.4° (Epoch: 26 July)

Event Time Altitude Azimuth Distance (km) Brightness Sun altitude
Rises 02:10:14 0° 108° (ESE) 2,888 6.8 -11.5°
Reaches altitude 10° 02:14:16 10° 69° (ENE) 2,009 6.7 -11.1°
Maximum altitude 02:15:10 11° 57° (ENE) 1,978 6.9 -11.0°
Drops below altitude 10° 02:16:05 10° 45° (NE) 2,026 7.3 -10.9°
Sets 02:20:13 0° 7° (N) 2,985 7.7 -10.5°
